Xtreme Racing in GPRO
 
HomeHome  PortalPortal  CalendarCalendar  FAQFAQ  SearchSearch  MemberlistMemberlist  UsergroupsUsergroups  RegisterRegister  Log inLog in  

Share | 
 

 Season 25 Race 4 Yeongam GP (South Korea)

Go down 
AuthorMessage
KlāvsPocius



Posts : 10
Points : 12
Reputation : 0
Join date : 2011-02-20
Age : 23
Location : Latvia

PostSubject: Season 25 Race 4 Yeongam GP (South Korea)   Wed May 04, 2011 1:58 pm

Lap Lap time Pos Tyres Weather Temp Hum Events
0 - 7 Soft Cloudy 9° 4% -
1 1:52.626 8 Soft Cloudy 9° 4% -
2 1:44.171 8 Soft Cloudy 9° 4% -
3 1:44.022 8 Soft Cloudy 9° 4% -
4 1:43.709 8 Soft Cloudy 9° 5% -
5 1:43.425 8 Soft Cloudy 9° 5% -
6 1:43.134 8 Soft Cloudy 9° 5% -
7 1:43.088 8 Soft Cloudy 9° 5% -
8 1:43.674 8 Soft Cloudy 9° 5% -
9 1:43.284 8 Soft Cloudy 10° 5% -
10 1:43.046 8 Soft Cloudy 11° 5% -
11 1:43.255 8 Soft Cloudy 12° 5% -
12 1:43.134 7 Soft Cloudy 12° 5% -
13 1:54.110 8 Soft Cloudy 13° 5% Pit
14 2:26.326 30 Soft Cloudy 13° 5% -
15 1:44.194 28 Soft Cloudy 13° 5% -
16 1:44.458 24 Soft Cloudy 13° 5% -
17 1:43.535 24 Soft Cloudy 13° 5% -
18 1:42.791 23 Soft Cloudy 13° 5% -
19 1:42.913 21 Soft Cloudy 13° 5% -
20 1:43.180 17 Soft Cloudy 13° 6% -
21 1:43.825 12 Soft Cloudy 13° 6% -
22 1:42.919 10 Soft Cloudy 13° 6% -
23 1:42.889 9 Soft Cloudy 13° 6% -
24 1:42.694 8 Soft Cloudy 13° 6% -
25 1:42.909 8 Soft Cloudy 13° 6% -
26 1:42.883 7 Soft Cloudy 13° 6% -
27 1:54.275 9 Soft Cloudy 13° 6% Pit
28 2:17.739 12 Soft Very Cloudy 13° 6% -
29 1:43.925 12 Soft Very Cloudy 13° 6% -
30 1:43.846 11 Soft Very Cloudy 13° 6% -
31 1:43.293 11 Soft Very Cloudy 13° 6% -
32 1:43.296 11 Soft Very Cloudy 12° 6% -
33 1:43.340 11 Soft Very Cloudy 12° 6% -
34 1:43.411 11 Soft Very Cloudy 12° 6% -
35 1:43.039 11 Soft Cloudy 12° 6% -
36 1:43.011 11 Soft Cloudy 12° 6% -
37 1:42.622 9 Soft Cloudy 12° 6% -
38 1:42.919 9 Soft Cloudy 12° 6% -
39 1:42.944 8 Soft Cloudy 12° 6% -
40 1:42.735 8 Soft Cloudy 12° 6% -
41 1:54.712 7 Soft Cloudy 12° 5% Pit
42 2:16.963 9 Soft Cloudy 12° 4% -
43 1:44.071 8 Soft Cloudy 12° 4% -
44 1:43.551 8 Soft Cloudy 12° 4% -
45 1:43.657 7 Soft Cloudy 12° 4% -
46 1:43.457 7 Soft Cloudy 12° 4% -
47 1:43.146 7 Soft Cloudy 12° 4% -
48 1:42.977 7 Soft Cloudy 12° 4% -
49 1:42.952 7 Soft Cloudy 11° 4% -
50 1:42.946 7 Soft Cloudy 11° 4% -
51 1:43.248 7 Soft Cloudy 11° 4% -
52 1:43.110 7 Soft Cloudy 11° 4% -
53 1:42.809 7 Soft Cloudy 11° 4% -
54 1:42.610 7 Soft Cloudy 10° 4% -
55 1:42.722 7 Soft Cloudy 9° 4% -



Risks used
Overtake Defend Clear Malfunct
15 0 50 0

Setup used
FWing RWing Eng Bra Gear Susp
811 811 677 577 577 700

Start fuel: 52 liters

Pit Pitstop reason Tyres condition
Fuel left Refilled to Pit time
Stop 1
(Lap 13) No more fuel was left 39% 2% 55 liters 30.391s
Stop 2
(Lap 27) No more fuel was left 31% 1% 55 liters 21.771s
Stop 3
(Lap 41) No more fuel was left 32% 1% 55 liters 20.946s

Tyres condition after finish: 33%

Fuel left in the car after finish: 2 liters
Back to top Go down
View user profile
PaulC



Posts : 94
Points : 187
Reputation : 0
Join date : 2010-08-01
Age : 50
Location : New Hampshire

PostSubject: Re: Season 25 Race 4 Yeongam GP (South Korea)   Thu May 05, 2011 2:11 pm

Practice / Qualify 1 Qualify 2 / Race start
Partially Cloudy
Temp: 11°C
Humidity: 13% Cloudy
Temp: 9°C
Humidity: 4%
Race forecast
Start - 0h30m 0h30m - 1h
Temp: 11°-14°
Humidity: 5%-14%
Rain probability: 0% Temp: 12°-17°
Humidity: 6%-13%
Rain probability: 0%
1h - 1h30m 1h30m - 2h
Temp: 11°-15°
Humidity: 4%-14%
Rain probability: 0% Temp: 9°-13°
Humidity: 3%-12%
Rain probability: 0%
Race settings and strategy
Risks used
Overtake Defend Clear Malfunct
0 0 20 0

Setup used
FWing RWing Eng Bra Gear Susp
751 651 712 569 687 654

Start fuel: 76 liters
Pit Pitstop reason Tyres condition
Fuel left Refilled to Pit time
Stop 1
(Lap 16) The tyres could not do any more laps 5% 9% 58 liters 20.614s
Stop 2
(Lap 31) No more fuel was left 7% 1% 58 liters 28.935s
Stop 3
(Lap 46) No more fuel was left 9% 1% 58 liters 23.145s

Tyres condition after finish: 46%

Fuel left in the car after finish: 24 liters

Lap information
Lap Lap time Pos Tyres Weather Temp Hum Events
0 - 2 Extra Soft Cloudy 9° 4% -
1 1:49.305 4 Extra Soft Cloudy 9° 4% -
2 1:44.356 5 Extra Soft Cloudy 9° 4% -
3 1:43.409 5 Extra Soft Cloudy 9° 4% -
4 1:43.225 5 Extra Soft Cloudy 9° 5% -
5 1:42.919 5 Extra Soft Cloudy 9° 5% -
6 1:43.048 5 Extra Soft Cloudy 9° 5% -
7 1:42.968 5 Extra Soft Cloudy 9° 5% -
8 1:42.963 5 Extra Soft Cloudy 9° 5% -
9 1:42.915 5 Extra Soft Cloudy 10° 5% -
10 1:42.631 5 Extra Soft Cloudy 11° 5% -
11 1:42.665 5 Extra Soft Cloudy 12° 5% -
12 1:42.455 5 Extra Soft Cloudy 12° 5% -
13 1:42.306 4 Extra Soft Cloudy 13° 5% -
14 1:42.634 3 Extra Soft Cloudy 13° 5% -
15 1:43.641 1 Extra Soft Cloudy 13° 5% -
16 1:56.625 2 Extra Soft Cloudy 13° 5% Pit
17 2:15.788 14 Extra Soft Cloudy 13° 5% -
18 1:43.093 12 Extra Soft Cloudy 13° 5% -
19 1:42.700 8 Extra Soft Cloudy 13° 5% -
20 1:42.495 5 Extra Soft Cloudy 13° 6% -
21 1:42.566 2 Extra Soft Cloudy 13° 6% -
22 1:42.596 2 Extra Soft Cloudy 13° 6% -
23 1:42.447 2 Extra Soft Cloudy 13° 6% -
24 1:42.314 2 Extra Soft Cloudy 13° 6% -
25 1:42.255 2 Extra Soft Cloudy 13° 6% -
26 1:42.217 2 Extra Soft Cloudy 13° 6% -
27 1:42.251 1 Extra Soft Cloudy 13° 6% -
28 1:42.184 1 Extra Soft Very Cloudy 13° 6% -
29 1:42.075 1 Extra Soft Very Cloudy 13° 6% -
30 1:42.893 1 Extra Soft Very Cloudy 13° 6% -
31 1:55.926 1 Extra Soft Very Cloudy 13° 6% Pit
32 2:24.211 8 Extra Soft Very Cloudy 12° 6% -
33 1:43.048 7 Extra Soft Very Cloudy 12° 6% -
34 1:42.826 7 Extra Soft Very Cloudy 12° 6% -
35 1:42.756 7 Extra Soft Cloudy 12° 6% -
36 1:42.604 7 Extra Soft Cloudy 12° 6% -
37 1:42.585 7 Extra Soft Cloudy 12° 6% -
38 1:42.478 6 Extra Soft Cloudy 12° 6% -
39 1:42.285 5 Extra Soft Cloudy 12° 6% -
40 1:42.150 4 Extra Soft Cloudy 12° 6% -
41 1:42.325 4 Extra Soft Cloudy 12° 5% -
42 1:42.269 2 Extra Soft Cloudy 12° 4% -
43 1:42.152 2 Extra Soft Cloudy 12° 4% -
44 1:41.982 2 Extra Soft Cloudy 12° 4% -
45 1:42.643 1 Extra Soft Cloudy 12° 4% -
46 1:55.447 1 Extra Soft Cloudy 12° 4% Pit
47 2:18.395 4 Extra Soft Cloudy 12° 4% -
48 1:43.220 4 Extra Soft Cloudy 12° 4% -
49 1:43.028 4 Extra Soft Cloudy 11° 4% -
50 1:42.672 4 Extra Soft Cloudy 11° 4% -
51 1:42.540 4 Extra Soft Cloudy 11° 4% -
52 1:42.613 4 Extra Soft Cloudy 11° 4% -
53 1:42.424 4 Extra Soft Cloudy 11° 4% -
54 1:42.419 4 Extra Soft Cloudy 10° 4% -
55 1:42.436 4 Extra Soft Cloudy 9° 4% -
Back to top Go down
View user profile
 
Season 25 Race 4 Yeongam GP (South Korea)
Back to top 
Page 1 of 1
 Similar topics
-
» NORTH AND SOUTH KOREA EXCHANGE ROCKET FIRE.
» US and South Korea resume drills being stopped due to escalating tensions and threats of war from Pyongyang, - AP
» It became known about North Korea preparing to strike in South Korea
» The King presents Colours to the Royal Regiment of Canada and the South Saskatchewan Regiment
» Sgt. D. B. Hammond RCFA/CS - KIA South Africa 27 Jan. 1901

Permissions in this forum:You cannot reply to topics in this forum
Xtreme Racing :: Season 25-
Jump to: